AirNav   Air Wisconsin pilot careers
 
 310 users online  

AR45 St Vincent Infirmary Heliport
Little Rock, Arkansas, USA

GOING TO LITTLE ROCK?


FAA INFORMATION EFFECTIVE 29 MARCH 2018

Location

FAA Identifier: AR45
Lat/Long: 34-45-02.3310N / 092-20-26.5480W
34-45.038850N / 092-20.442467W
34.7506475 / -92.3407078
(estimated)
Elevation: 435 ft. / 133 m (estimated)
Variation: 04E (1985)
From city: 3 miles NW of LITTLE ROCK, AR
Time zone: UTC -5 (UTC -6 during Standard Time)
Zip code: 72205

Heliport Operations

Heliport use: Private use, MEDICAL.
Activation date: 10/1985
Control tower: no
ARTCC: MEMPHIS CENTER
FSS: JONESBORO FLIGHT SERVICE STATION
Attendance: CONTINUOUS
Wind indicator: lighted
Segmented circle: no
Lights: FREQ 155.34 AVBL FOR HEL AMBULANCES FOR PERIMETER LGTS.
Beacon: white-green-yellow (heliport)
Operates sunset to sunrise.

Heliport Communications

WX ASOS at LIT (6 nm E): PHONE 501-376-0247
WX AWOS-2 at SUZ (12 nm SW): 132.125 (501-847-3883)
WX AWOS-2 at CXW (19 nm NW): 118.775 (501-358-6209)

Nearby radio navigation aids

VOR radial/distance  VOR name  Freq  Var
LITr294/9.0LITTLE ROCK VORTAC113.9005E
PBFr322/36.5PINE BLUFF VOR/DME116.0004E

 
NDB name  Hdg/Dist  Freq  Var  ID
LASKY335/5.235305ELI .-.. ..
TONEYVILLE232/19.929001ETYV - -.-- ...-

Heliport Services

Runway Information

Helipad H1

Dimensions: 40 x 40 ft. / 12 x 12 m
Surface: concrete
Runway edge lights: PERIMETER LGTS ON HELIPAD.
Latitude: 34-45.038850N
Longitude: 092-20.442467W
Elevation: 435.0 ft.
Traffic pattern: leftleft

Heliport Ownership and Management from official FAA records

Ownership: Privately-owned
Owner: ST VINCENT INFIRMARY MED CTR
TWO ST VINCENT CIRCLE
LITTLE ROCK, AR 72205
Phone 501-660-3000
Manager: PAUL GASKIN
TWO ST VINCENT CIRCLE
LITTLE ROCK, AR 72205
Phone 501-552-3538

Instrument Procedures

There are no published instrument procedures at AR45.

Some nearby airports with instrument procedures:

KLIT - Bill and Hillary Clinton National Airport/Adams Field (6 nm E)
KORK - North Little Rock Municipal Airport (7 nm NE)
KSUZ - Saline County Regional Airport (12 nm SW)
KLRF - Little Rock Air Force Base (14 nm NE)
KCXW - Cantrell Field Airport (19 nm NW)
 
Loc | Ops | Rwys | IFR | FBO | Links
Com | Nav | Svcs | Stats | Notes

AirNav Hotels Sweepstakes
 
Area around AR45 (St Vincent Infirmary Heliport)
 
Road maps at: MapQuest Bing Google
 
Aerial photo
No photo
 
Sectional chart

 
Airport distance calculator
Flying to St Vincent Infirmary Heliport? Find the distance to fly.

From to AR45

Sunrise and sunset
Times for 26-Apr-2018
 Local
(UTC-5)
 Zulu
(UTC)
Morning civil twilight05:5910:59
Sunrise06:2511:25
Sunset19:4900:49
Evening civil twilight20:1601:16

Current date and time
Zulu (UTC)  26-Apr-2018 09:16:57
Local (UTC-5)  26-Apr-2018 04:16:57
 
METAR
KLIT 
5nm E 
260853Z 01003KT 10SM FEW022 OVC080 11/11 A2988 RMK AO2 RAB17E42 SLP122 P0003 60027 T01110111 $
KLRF 
14nm NE 
260857Z 00000KT 10SM -RA BKN006 OVC014 12/12 A2988 RMK AO2A RAB56 CIG 006V010 BKN V OVC CIG 007 RWY07 SLP121
KCXW 
19nm NW 
260855Z AUTO 31005KT 9SM OVC012 12/12 A2990 RMK A01
TAF
KLIT 
5nm E 
260520Z 2606/2706 32006KT 5SM -RA BR BKN006 OVC025 FM260900 31005KT 2SM BR OVC009 FM261500 33011KT P6SM OVC015 FM262000 34008KT P6SM OVC050
KLRF 
14nm NE 
260700Z 2607/2713 30006KT 9000 -SHRA OVC005 QNH2985INS BECMG 2614/2615 30010G15KT 9999 NSW BKN020 QNH2987INS BECMG 2623/2624 34009KT 8000 -RA BKN030 QNH2988INS BECMG 2705/2706 VRB06KT 9999 NSW OVC110 QNH2990INS BECMG 2712/2713 34006KT 9999 FEW110 QNH2998INS TX19/2620Z TN12/2612Z
NOTAMs
Click for the latest NOTAMs
NOTAMs are issued by the DoD/FAA and will open in a separate window not controlled by AirNav.

 

 
 

Would you like to see your business listed on this page?

 If your business provides an interesting product or service to pilots, flight crews, aircraft, or users of the St Vincent Infirmary Heliport, you should consider listing it here.  To start the listing process, click on the button below
 
Add a business
 

Other Pages about St Vincent Infirmary Heliport

Update a link
 
Copyright © AirNav, LLC. All rights reserved. Privacy Policy  Contact